KAC615 OKKK-OBBI

Flight info

Callsign KAC615
Flight time 0h 49m
Altitude 27000
Route BOXIK B416 IMDOX P975 LONOS L703 KOBOK
Aircraft B77W/H-SDE1E2E3FGHIJ2J3J4J5M1RWXY/LB1D1

Departure

Time 2026-04-28 07:07
Airport Kuwait International Airport (OKKK)

Arrival

Time 2026-04-28 07:57
Airport Bahrain International Airport (OBBI)
Time Latitude Longitude Altitude Speed Heading
2026-04-28 05:46 29.24969 47.96051 141 ft 0 kts 59°
2026-04-28 06:53 29.24968 47.96051 141 ft 0 kts 59°
2026-04-28 06:53 29.24965 47.96043 141 ft 2 kts 59°
2026-04-28 06:53 29.24958 47.96031 141 ft 2 kts 59°
2026-04-28 06:54 29.24952 47.96018 141 ft 2 kts 58°
2026-04-28 06:54 29.24945 47.96006 141 ft 2 kts 58°
2026-04-28 06:54 29.24939 47.95993 141 ft 2 kts 58°
2026-04-28 06:54 29.24932 47.95981 141 ft 2 kts 58°
2026-04-28 06:55 29.24926 47.95969 141 ft 2 kts 59°
2026-04-28 06:55 29.24921 47.95957 141 ft 2 kts 85°
2026-04-28 06:55 29.24923 47.95944 141 ft 2 kts 111°
2026-04-28 06:55 29.24930 47.95931 141 ft 2 kts 137°
2026-04-28 06:56 29.24941 47.95923 141 ft 2 kts 159°
2026-04-28 06:56 29.24954 47.95917 141 ft 2 kts 158°
2026-04-28 06:56 29.24967 47.95910 141 ft 2 kts 156°
2026-04-28 06:56 29.24980 47.95904 141 ft 1 kts 155°
2026-04-28 06:57 29.24982 47.95903 141 ft 0 kts 155°
2026-04-28 06:59 29.24971 47.95908 141 ft 3 kts 154°
2026-04-28 07:00 29.24947 47.95922 141 ft 6 kts 154°
2026-04-28 07:00 29.24902 47.95946 141 ft 9 kts 154°
2026-04-28 07:00 29.24841 47.95979 141 ft 6 kts 155°
2026-04-28 07:00 29.24801 47.96000 142 ft 7 kts 155°
2026-04-28 07:01 29.24724 47.96042 143 ft 9 kts 155°
2026-04-28 07:01 29.24678 47.96066 143 ft 6 kts 155°
2026-04-28 07:01 29.24629 47.96092 143 ft 7 kts 154°
2026-04-28 07:01 29.24595 47.96110 144 ft 7 kts 155°
2026-04-28 07:02 29.24550 47.96134 144 ft 12 kts 155°
2026-04-28 07:02 29.24478 47.96172 144 ft 11 kts 155°
2026-04-28 07:02 29.24398 47.96214 144 ft 15 kts 154°
2026-04-28 07:02 29.24323 47.96254 145 ft 10 kts 155°
2026-04-28 07:03 29.24267 47.96284 146 ft 7 kts 156°
2026-04-28 07:03 29.24224 47.96306 146 ft 6 kts 154°
2026-04-28 07:03 29.24185 47.96328 147 ft 6 kts 154°
2026-04-28 07:03 29.24145 47.96347 148 ft 6 kts 169°
2026-04-28 07:04 29.24118 47.96341 148 ft 4 kts 208°
2026-04-28 07:04 29.24099 47.96323 147 ft 2 kts 229°
2026-04-28 07:04 29.24093 47.96312 147 ft 0 kts 237°
2026-04-28 07:04 29.24089 47.96305 147 ft 1 kts 237°
2026-04-28 07:05 29.24079 47.96287 147 ft 3 kts 239°
2026-04-28 07:05 29.24065 47.96258 146 ft 4 kts 241°
2026-04-28 07:05 29.24053 47.96230 147 ft 3 kts 243°
2026-04-28 07:05 29.24044 47.96212 147 ft 3 kts 236°
2026-04-28 07:06 29.24031 47.96196 147 ft 4 kts 217°
2026-04-28 07:06 29.24016 47.96189 147 ft 3 kts 191°
2026-04-28 07:06 29.23988 47.96190 148 ft 6 kts 169°
2026-04-28 07:06 29.23933 47.96215 148 ft 14 kts 155°
2026-04-28 07:07 29.23675 47.96352 151 ft 88 kts 155°
2026-04-28 07:07 29.22949 47.96738 178 ft 165 kts 153°
2026-04-28 07:07 29.21094 47.97717 1951 ft 174 kts 159°
2026-04-28 07:08 29.19980 47.98296 2628 ft 179 kts 146°
2026-04-28 07:08 29.18596 48.00486 3378 ft 217 kts 117°
2026-04-28 07:08 29.17848 48.02508 3975 ft 239 kts 116°
2026-04-28 07:09 29.17211 48.04251 4498 ft 257 kts 116°
2026-04-28 07:09 29.16442 48.06370 5254 ft 270 kts 116°
2026-04-28 07:09 29.15523 48.08923 5899 ft 279 kts 114°
2026-04-28 07:09 29.15104 48.11183 5987 ft 290 kts 96°
2026-04-28 07:10 29.15099 48.16797 7795 ft 296 kts 92°
2026-04-28 07:10 29.15104 48.18791 7956 ft 298 kts 92°
2026-04-28 07:10 29.15108 48.20502 7982 ft 297 kts 93°
2026-04-28 07:11 29.15110 48.22394 7987 ft 298 kts 93°
2026-04-28 07:11 29.15112 48.24082 7979 ft 298 kts 93°
2026-04-28 07:11 29.15113 48.25666 7966 ft 298 kts 93°
2026-04-28 07:12 29.15096 48.32098 7974 ft 295 kts 98°
2026-04-28 07:12 29.14830 48.33537 7966 ft 292 kts 115°
2026-04-28 07:13 29.10767 48.39677 10426 ft 298 kts 135°
2026-04-28 07:13 29.09103 48.41850 11024 ft 319 kts 136°
2026-04-28 07:14 29.07557 48.43868 11561 ft 336 kts 135°
2026-04-28 07:14 29.05681 48.46319 12201 ft 356 kts 136°
2026-04-28 07:15 28.98850 48.55238 15352 ft 393 kts 135°
2026-04-28 07:15 28.97396 48.57136 16131 ft 397 kts 135°
2026-04-28 07:15 28.95568 48.59519 17021 ft 403 kts 135°
2026-04-28 07:16 28.93722 48.61925 17882 ft 409 kts 135°
2026-04-28 07:16 28.91878 48.64325 18722 ft 415 kts 135°
2026-04-28 07:16 28.89972 48.66806 19546 ft 422 kts 136°
2026-04-28 07:16 28.88028 48.69333 20332 ft 429 kts 136°
2026-04-28 07:17 28.86062 48.71889 21149 ft 434 kts 136°
2026-04-28 07:17 28.84057 48.74494 21999 ft 438 kts 136°
2026-04-28 07:17 28.82031 48.77125 22816 ft 443 kts 137°
2026-04-28 07:17 28.80109 48.79905 23463 ft 456 kts 129°
2026-04-28 07:18 28.78501 48.83003 24200 ft 463 kts 125°
2026-04-28 07:18 28.76917 48.86250 24901 ft 469 kts 125°
2026-04-28 07:18 28.75340 48.89489 25569 ft 474 kts 125°
2026-04-28 07:18 28.73756 48.92733 26229 ft 479 kts 126°
2026-04-28 07:19 28.72133 48.96047 26713 ft 483 kts 126°
2026-04-28 07:19 28.70471 48.99441 26781 ft 481 kts 126°
2026-04-28 07:19 28.68923 49.02600 26786 ft 476 kts 126°
2026-04-28 07:19 28.67483 49.05534 26786 ft 475 kts 126°
2026-04-28 07:20 28.65969 49.08609 26787 ft 477 kts 126°
2026-04-28 07:20 28.64329 49.11938 26788 ft 478 kts 126°
2026-04-28 07:20 28.62739 49.15164 26785 ft 477 kts 126°
2026-04-28 07:20 28.61261 49.18151 26787 ft 478 kts 127°
2026-04-28 07:21 28.59265 49.21423 26796 ft 468 kts 137°
2026-04-28 07:21 28.57034 49.24027 26797 ft 460 kts 147°
2026-04-28 07:21 28.54470 49.26168 26799 ft 452 kts 156°
2026-04-28 07:22 28.49378 49.30401 26795 ft 450 kts 148°
2026-04-28 07:22 28.46951 49.32710 26799 ft 459 kts 147°
2026-04-28 07:22 28.44681 49.34903 26798 ft 457 kts 147°
2026-04-28 07:22 28.42377 49.37146 26799 ft 455 kts 147°
2026-04-28 07:23 28.39876 49.39591 26795 ft 457 kts 147°
2026-04-28 07:23 28.37437 49.41983 26801 ft 460 kts 147°
2026-04-28 07:23 28.35040 49.44342 26795 ft 458 kts 147°
2026-04-28 07:23 28.32634 49.46712 26795 ft 458 kts 146°
2026-04-28 07:24 28.30255 49.49058 26792 ft 458 kts 147°
2026-04-28 07:24 28.27855 49.51419 26794 ft 458 kts 147°
2026-04-28 07:24 28.25731 49.53509 26793 ft 458 kts 147°
2026-04-28 07:24 28.23355 49.55846 26799 ft 459 kts 147°
2026-04-28 07:25 28.20788 49.58351 26790 ft 455 kts 149°
2026-04-28 07:25 28.18264 49.60541 26802 ft 454 kts 151°
2026-04-28 07:25 28.15711 49.62702 26796 ft 454 kts 151°
2026-04-28 07:25 28.13199 49.64836 26805 ft 452 kts 151°
2026-04-28 07:26 28.10679 49.66982 26786 ft 451 kts 152°
2026-04-28 07:26 28.08166 49.69126 26790 ft 452 kts 152°
2026-04-28 07:26 28.05658 49.71269 26790 ft 452 kts 152°
2026-04-28 07:26 28.03146 49.73360 26802 ft 451 kts 154°
2026-04-28 07:27 28.00544 49.75372 26791 ft 450 kts 154°
2026-04-28 07:27 27.98017 49.77315 26790 ft 448 kts 154°
2026-04-28 07:27 27.95537 49.79225 26793 ft 450 kts 154°
2026-04-28 07:27 27.93099 49.81107 26795 ft 450 kts 154°
2026-04-28 07:28 27.90424 49.83176 26791 ft 447 kts 154°
2026-04-28 07:28 27.88766 49.84459 26800 ft 448 kts 154°
2026-04-28 07:28 27.83508 49.88527 26802 ft 449 kts 154°
2026-04-28 07:29 27.81091 49.90399 26805 ft 447 kts 154°
2026-04-28 07:29 27.78046 49.92754 26799 ft 448 kts 154°
2026-04-28 07:29 27.75429 49.94775 26808 ft 449 kts 154°
2026-04-28 07:29 27.72852 49.96767 26807 ft 448 kts 154°
2026-04-28 07:30 27.70237 49.98787 26805 ft 448 kts 154°
2026-04-28 07:30 27.67653 50.00781 26807 ft 450 kts 154°
2026-04-28 07:30 27.65036 50.02801 26806 ft 449 kts 154°
2026-04-28 07:30 27.62486 50.04769 26806 ft 448 kts 154°
2026-04-28 07:31 27.59926 50.06743 26806 ft 449 kts 154°
2026-04-28 07:31 27.57333 50.08740 26806 ft 450 kts 154°
2026-04-28 07:31 27.54720 50.10753 26804 ft 449 kts 154°
2026-04-28 07:31 27.52194 50.12697 26802 ft 448 kts 153°
2026-04-28 07:32 27.49615 50.14681 26803 ft 449 kts 153°
2026-04-28 07:32 27.47032 50.16666 26806 ft 449 kts 154°
2026-04-28 07:32 27.44476 50.18633 26424 ft 444 kts 153°
2026-04-28 07:32 27.41973 50.20634 25871 ft 443 kts 152°
2026-04-28 07:33 27.39483 50.22667 25480 ft 436 kts 152°
2026-04-28 07:33 27.37025 50.24670 24996 ft 432 kts 152°
2026-04-28 07:33 27.34624 50.26622 24482 ft 428 kts 152°
2026-04-28 07:33 27.32201 50.28588 23977 ft 425 kts 151°
2026-04-28 07:34 27.29791 50.30542 23448 ft 422 kts 151°
2026-04-28 07:34 27.27396 50.32481 22923 ft 419 kts 151°
2026-04-28 07:34 27.25024 50.34400 22416 ft 417 kts 150°
2026-04-28 07:34 27.22676 50.36298 21905 ft 415 kts 150°
2026-04-28 07:35 27.20324 50.38197 21382 ft 413 kts 150°
2026-04-28 07:35 27.18015 50.40061 20856 ft 412 kts 150°
2026-04-28 07:35 27.15663 50.41958 20319 ft 410 kts 149°
2026-04-28 07:35 27.13550 50.43662 19829 ft 409 kts 149°
2026-04-28 07:36 27.11101 50.45635 19269 ft 407 kts 149°
2026-04-28 07:36 27.08783 50.47503 18738 ft 405 kts 148°
2026-04-28 07:36 27.06506 50.49335 18215 ft 403 kts 148°
2026-04-28 07:36 27.04218 50.51176 17681 ft 401 kts 148°
2026-04-28 07:37 27.01949 50.53001 17151 ft 399 kts 148°
2026-04-28 07:37 26.99619 50.54673 16616 ft 393 kts 156°
2026-04-28 07:37 26.97105 50.55819 16086 ft 386 kts 167°
2026-04-28 07:37 26.94494 50.56366 15892 ft 369 kts 178°
2026-04-28 07:38 26.91972 50.56549 15885 ft 352 kts 180°
2026-04-28 07:38 26.89447 50.56700 15892 ft 369 kts 180°
2026-04-28 07:38 26.86908 50.56834 15901 ft 372 kts 180°
2026-04-28 07:38 26.84339 50.56962 15894 ft 372 kts 180°
2026-04-28 07:39 26.81787 50.57085 15775 ft 375 kts 180°
2026-04-28 07:39 26.79169 50.57208 15696 ft 370 kts 181°
2026-04-28 07:39 26.76539 50.57330 15149 ft 378 kts 181°
2026-04-28 07:39 26.73922 50.57451 14819 ft 370 kts 181°
2026-04-28 07:40 26.71401 50.57568 14531 ft 362 kts 181°
2026-04-28 07:40 26.68865 50.57683 13912 ft 364 kts 181°
2026-04-28 07:40 26.66306 50.57799 13373 ft 363 kts 180°
2026-04-28 07:40 26.63808 50.57912 12933 ft 360 kts 180°
2026-04-28 07:41 26.61301 50.58026 12476 ft 357 kts 180°
2026-04-28 07:41 26.58841 50.58138 12022 ft 354 kts 180°
2026-04-28 07:41 26.56413 50.58249 11852 ft 341 kts 180°
2026-04-28 07:41 26.54078 50.58356 11808 ft 325 kts 180°
2026-04-28 07:42 26.51868 50.58639 11657 ft 313 kts 165°
2026-04-28 07:42 26.49976 50.59707 11576 ft 301 kts 143°
2026-04-28 07:42 26.48587 50.61418 11397 ft 296 kts 123°
2026-04-28 07:42 26.47824 50.63494 11008 ft 301 kts 103°
2026-04-28 07:43 26.47757 50.65867 10566 ft 304 kts 84°
2026-04-28 07:43 26.47791 50.68196 10151 ft 303 kts 103°
2026-04-28 07:43 26.47022 50.70364 9678 ft 300 kts 124°
2026-04-28 07:43 26.45850 50.72245 9431 ft 290 kts 138°
2026-04-28 07:44 26.44208 50.73475 9007 ft 284 kts 164°
2026-04-28 07:44 26.42282 50.73781 8576 ft 276 kts 189°
2026-04-28 07:44 26.40435 50.73263 8289 ft 268 kts 204°
2026-04-28 07:44 26.38887 50.72177 7891 ft 264 kts 228°
2026-04-28 07:45 26.37954 50.70398 7468 ft 263 kts 255°
2026-04-28 07:45 26.37878 50.68414 7156 ft 262 kts 280°
2026-04-28 07:45 26.38652 50.66564 6859 ft 264 kts 307°
2026-04-28 07:45 26.39870 50.65034 6521 ft 264 kts 307°
2026-04-28 07:46 26.40992 50.63388 6152 ft 264 kts 302°
2026-04-28 07:46 26.42013 50.61683 5843 ft 263 kts 300°
2026-04-28 07:46 26.42992 50.59988 5516 ft 263 kts 300°
2026-04-28 07:46 26.43988 50.58249 5175 ft 263 kts 300°
2026-04-28 07:47 26.44985 50.56510 4793 ft 265 kts 300°
2026-04-28 07:47 26.45987 50.54760 4270 ft 271 kts 300°
2026-04-28 07:47 26.47004 50.52987 3798 ft 269 kts 300°
2026-04-28 07:47 26.48022 50.51231 3395 ft 271 kts 301°
2026-04-28 07:48 26.49050 50.49463 3051 ft 268 kts 301°
2026-04-28 07:48 26.50025 50.47758 2978 ft 251 kts 296°
2026-04-28 07:48 26.50450 50.46014 2924 ft 230 kts 265°
2026-04-28 07:48 26.50003 50.44378 2894 ft 215 kts 232°
2026-04-28 07:49 26.48927 50.43319 2869 ft 197 kts 212°
2026-04-28 07:49 26.47816 50.42523 2853 ft 182 kts 211°
2026-04-28 07:49 26.46786 50.41795 2836 ft 166 kts 211°
2026-04-28 07:49 26.45821 50.41111 2835 ft 164 kts 211°
2026-04-28 07:50 26.44841 50.40418 2831 ft 163 kts 211°
2026-04-28 07:50 26.43888 50.39737 2836 ft 162 kts 211°
2026-04-28 07:50 26.42941 50.39061 2822 ft 162 kts 211°
2026-04-28 07:50 26.41909 50.38661 2784 ft 161 kts 175°
2026-04-28 07:51 26.40904 50.39173 2754 ft 162 kts 137°
2026-04-28 07:51 26.40158 50.40132 2742 ft 165 kts 126°
2026-04-28 07:51 26.39601 50.41270 2753 ft 168 kts 120°
2026-04-28 07:51 26.39132 50.42450 2758 ft 168 kts 120°
2026-04-28 07:52 26.38554 50.43591 2753 ft 167 kts 126°
2026-04-28 07:52 26.37928 50.44680 2748 ft 167 kts 126°
2026-04-28 07:52 26.37283 50.45785 2738 ft 167 kts 126°
2026-04-28 07:52 26.36656 50.46863 2742 ft 167 kts 126°
2026-04-28 07:53 26.36015 50.47968 2731 ft 167 kts 126°
2026-04-28 07:53 26.35375 50.49071 2565 ft 169 kts 125°
2026-04-28 07:53 26.34768 50.50121 2353 ft 154 kts 126°
2026-04-28 07:53 26.34210 50.51085 2151 ft 143 kts 126°
2026-04-28 07:54 26.33666 50.52020 1983 ft 141 kts 126°
2026-04-28 07:54 26.33138 50.52933 1822 ft 140 kts 125°
2026-04-28 07:54 26.32602 50.53857 1638 ft 140 kts 124°
2026-04-28 07:54 26.32078 50.54764 1459 ft 139 kts 124°
2026-04-28 07:55 26.31547 50.55679 1279 ft 141 kts 124°
2026-04-28 07:55 26.31012 50.56601 1091 ft 141 kts 124°
2026-04-28 07:55 26.30480 50.57520 906 ft 142 kts 124°
2026-04-28 07:55 26.29949 50.58435 727 ft 144 kts 124°
2026-04-28 07:56 26.29404 50.59369 544 ft 145 kts 124°
2026-04-28 07:56 26.28851 50.60323 365 ft 145 kts 123°
2026-04-28 07:56 26.28299 50.61266 199 ft 147 kts 123°
2026-04-28 07:56 26.27807 50.62118 45 ft 146 kts 122°
2026-04-28 07:57 26.27251 50.63088 18 ft 129 kts 124°
2026-04-28 07:57 26.26858 50.63759 18 ft 76 kts 123°
2026-04-28 07:57 26.26664 50.64092 18 ft 29 kts 123°
2026-04-28 07:57 26.26603 50.64198 18 ft 14 kts 123°
2026-04-28 07:58 26.26549 50.64290 18 ft 10 kts 124°
2026-04-28 07:58 26.26506 50.64327 18 ft 3 kts 172°
2026-04-28 07:58 26.26467 50.64317 18 ft 6 kts 206°
2026-04-28 07:58 26.26444 50.64302 18 ft 4 kts 211°
2026-04-28 07:59 26.26417 50.64284 18 ft 4 kts 212°
2026-04-28 07:59 26.26396 50.64263 18 ft 3 kts 233°
2026-04-28 07:59 26.26389 50.64241 18 ft 3 kts 264°
2026-04-28 07:59 26.26394 50.64213 18 ft 4 kts 291°
2026-04-28 08:00 26.26411 50.64172 18 ft 6 kts 299°
2026-04-28 08:00 26.26440 50.64122 18 ft 8 kts 302°
2026-04-28 08:00 26.26462 50.64074 18 ft 5 kts 285°
2026-04-28 08:00 26.26457 50.64035 18 ft 5 kts 226°
2026-04-28 08:01 26.26428 50.64007 18 ft 6 kts 229°
2026-04-28 08:01 26.26414 50.63955 18 ft 9 kts 280°
2026-04-28 08:01 26.26453 50.63883 18 ft 12 kts 308°
2026-04-28 08:01 26.26486 50.63833 18 ft 0 kts 303°
2026-04-28 08:03 26.26499 50.63810 18 ft 7 kts 304°
2026-04-28 08:04 26.26546 50.63731 18 ft 16 kts 301°
2026-04-28 08:04 26.26587 50.63659 18 ft 4 kts 303°
2026-04-28 08:04 26.26605 50.63628 18 ft 4 kts 304°
2026-04-28 08:04 26.26610 50.63619 18 ft 0 kts 299°
2026-04-28 08:05 26.26611 50.63616 18 ft 1 kts 288°
2026-04-28 08:05 26.26607 50.63593 18 ft 3 kts 233°
2026-04-28 08:05 26.26582 50.63567 18 ft 5 kts 230°
2026-04-28 08:05 26.26562 50.63544 18 ft 2 kts 220°
2026-04-28 08:06 26.26547 50.63533 18 ft 0 kts 217°
2026-04-28 08:06 26.26546 50.63531 18 ft 0 kts 217°